Location: Phoenix
(33.4480°N, 112.0730°W)
Time: 22:59:42
(UTC-07:00)

Cosmos 1470 Rocket - Visible Passes

Search period start: 27 June 2016 00:00
Search period end: 07 July 2016 00:00
Orbit: 603 x 635 km, 82.5° (Epoch: 27 June)

Date Brightness Start Highest point End Pass type
(mag) Time Alt. Az. Time Alt. Az. Time Alt. Az.
27 Jun 4.2 22:05:53 43° ENE 22:05:53 43° ENE 22:09:16 10° NNE visible
27 Jun 6.4 23:43:01 10° WNW 23:43:13 10° WNW 23:43:54 10° WNW visible
28 Jun 3.7 22:22:50 71° NNW 22:22:50 71° NNW 22:26:46 10° N visible
29 Jun 5.5 21:02:37 13° E 21:02:37 13° E 21:04:25 10° ENE visible
29 Jun 4.7 22:39:44 37° W 22:39:53 37° W 22:43:54 10° NNW visible
30 Jun 4.6 21:19:29 26° E 21:19:37 26° E 21:23:11 10° NE visible
30 Jun 5.7 22:56:36 18° W 22:57:25 19° WNW 23:00:32 10° NNW visible
01 Jul 3.6 21:36:19 48° ESE 21:36:53 52° E 21:41:05 10° NNE visible
02 Jul 3.6 21:53:06 47° SSW 21:54:15 74° W 21:58:34 10° N visible
03 Jul 5.4 20:32:43 12° ESE 20:34:13 14° E 20:36:26 10° NE visible
03 Jul 4.9 22:09:50 24° SW 22:11:41 35° W 22:15:40 10° NNW visible
04 Jul 4.5 20:49:24 19° SE 20:51:25 27° E 20:55:04 10° NNE visible
04 Jul 6.0 22:26:30 11° WSW 22:29:14 18° WNW 22:32:13 10° NNW visible
05 Jul 3.6 21:06:00 21° SSE 21:08:41 56° E 21:12:55 10° NNE visible
06 Jul 3.7 21:22:31 15° SSW 21:26:03 68° W 21:30:21 10° N visible
